"Pseudo-MPEC" for TF26H53

Created 2026 Aug 15 9:35:30 UT using Find_Orb

Click here for an explanation of pseudo-MPECs

 
 Astrometry: 
     TF26H53* C2026 08 15.37669320 38 20.493+01 46 17.09   ~8F9Z 18.04GVNEOCPU74
     TF26H53  C2026 08 15.38003420 38 20.162+01 46 15.87   ~8F9Z 18.04GVNEOCPU74

Station data:
(U74) JPL SynTrack Robotic Telescope 2, Auberry  (N37.070341 W119.412800)
   US/California.  Observers N. Saini, C. Zhai, R. Trahan, M. Zhan, M. Shao.
   0.36-m f/2.2 Schmidt.

Orbital elements:  TF26H53
   Perihelion 2027 Mar 26.452439 +/- 249 TT = 10:51:30.7 (JD 2461490.952439)
Epoch 2026 Aug 15.0 TT = JDT 2461267.5   Earth MOID: 0.1088   Ve: 0.0700
M 253.279144290 +/- 90              Ma: 0.0068                   AutoNEOCP
n   0.477599868 +/- 0.281           Peri.  228.341461 +/- 43
a   1.620913789 +/- 0.635           Node   247.725909 +/- 58
e   0.67464049 +/- 0.26             Incl.   12.241678 +/- 60
P   2.064/753.755d         H 15.07  G  0.15   U 11.9  SR
q 0.527379710 +/- 0.919    Q 2.714447868 +/- 24.8         (J2000 ecliptic)
From 2 observations 2026 Aug. 15 (4.8 min); mean residual 0".01
Residuals in arcseconds: 
260815 U74  .01+  .00     260815 U74  .01+  .00     

Ephemerides (geocentric):
Date (UTC) HH   RA             Dec           delta  r     elong  mag " sig PA
---- --------  ------------   ------------  ------ ------ -----  --- --------
2026 08 15 10  20 38 16.771   +01 46 06.09  1.4132 2.3836 158.2 18.3 56.6 135
2026 08 15 11  20 38 12.719   +01 45 50.86  1.4131 2.3834 158.2 18.3 66.2 128
2026 08 15 12  20 38 08.668   +01 45 35.62  1.4131 2.3833 158.2 18.3 76.7 122
2026 08 15 13  20 38 04.617   +01 45 20.35  1.4130 2.3831 158.2 18.3 87.8 118
2026 08 15 14  20 38 00.567   +01 45 05.07  1.4129 2.3829 158.1 18.3   99 114
2026 08 15 15  20 37 56.518   +01 44 49.76  1.4128 2.3827 158.1 18.3  111 112
2026 08 15 16  20 37 52.470   +01 44 34.43  1.4128 2.3825 158.1 18.3  123 110
2026 08 15 17  20 37 48.422   +01 44 19.08  1.4127 2.3823 158.1 18.3  136 108
2026 08 15 18  20 37 44.376   +01 44 03.72  1.4126 2.3821 158.0 18.3  148 106
2026 08 15 19  20 37 40.330   +01 43 48.33  1.4125 2.3820 158.0 18.3  160 105
2026 08 15 20  20 37 36.284   +01 43 32.92  1.4125 2.3818 158.0 18.3  173 104
2026 08 15 21  20 37 32.240   +01 43 17.49  1.4124 2.3816 158.0 18.3  186 103
2026 08 15 22  20 37 28.196   +01 43 02.04  1.4123 2.3814 157.9 18.3  199 102
2026 08 15 23  20 37 24.154   +01 42 46.57  1.4122 2.3812 157.9 18.3  212 102
2026 08 16 00  20 37 20.112   +01 42 31.08  1.4122 2.3810 157.9 18.3  225 101
2026 08 16 01  20 37 16.070   +01 42 15.57  1.4121 2.3808 157.8 18.3  238 100
2026 08 16 02  20 37 12.030   +01 42 00.04  1.4120 2.3807 157.8 18.3  251 100
2026 08 16 03  20 37 07.990   +01 41 44.49  1.4120 2.3805 157.8 18.3  264 100
2026 08 16 04  20 37 03.952   +01 41 28.92  1.4119 2.3803 157.8 18.3  277  99
2026 08 16 05  20 36 59.914   +01 41 13.33  1.4118 2.3801 157.7 18.3  291  99
2026 08 16 06  20 36 55.877   +01 40 57.72  1.4117 2.3799 157.7 18.3  304  98
2026 08 16 07  20 36 51.841   +01 40 42.09  1.4117 2.3797 157.7 18.3  318  98
2026 08 16 08  20 36 47.805   +01 40 26.44  1.4116 2.3795 157.7 18.3  331  98
2026 08 16 09  20 36 43.771   +01 40 10.77  1.4115 2.3794 157.6 18.3  345  98
2026 08 16 10  20 36 39.737   +01 39 55.08  1.4115 2.3792 157.6 18.3  358  97
2026 08 16 11  20 36 35.705   +01 39 39.37  1.4114 2.3790 157.6 18.3  372  97
2026 08 16 12  20 36 31.673   +01 39 23.64  1.4113 2.3788 157.5 18.3  386  97
2026 08 16 13  20 36 27.642   +01 39 07.89  1.4113 2.3786 157.5 18.3  399  97
2026 08 16 14  20 36 23.612   +01 38 52.12  1.4112 2.3784 157.5 18.3  413  96
2026 08 16 15  20 36 19.583   +01 38 36.33  1.4111 2.3782 157.5 18.3  427  96
2026 08 16 16  20 36 15.555   +01 38 20.52  1.4111 2.3781 157.4 18.3  441  96
2026 08 16 17  20 36 11.528   +01 38 04.69  1.4110 2.3779 157.4 18.3  455  96
2026 08 16 18  20 36 07.502   +01 37 48.84  1.4109 2.3777 157.4 18.3  469  96
2026 08 16 19  20 36 03.477   +01 37 32.97  1.4109 2.3775 157.3 18.3  483  96
2026 08 16 20  20 35 59.453   +01 37 17.08  1.4108 2.3773 157.3 18.3  497  95
2026 08 16 21  20 35 55.429   +01 37 01.18  1.4108 2.3771 157.3 18.3  511  95
2026 08 16 22  20 35 51.407   +01 36 45.25  1.4107 2.3769 157.2 18.3  526  95
2026 08 16 23  20 35 47.386   +01 36 29.30  1.4106 2.3767 157.2 18.3  540  95
2026 08 17 00  20 35 43.365   +01 36 13.34  1.4106 2.3766 157.2 18.3  554  95
2026 08 17 01  20 35 39.346   +01 35 57.35  1.4105 2.3764 157.2 18.3  569  95
2026 08 17 02  20 35 35.327   +01 35 41.35  1.4105 2.3762 157.1 18.3  583  95
2026 08 17 03  20 35 31.310   +01 35 25.32  1.4104 2.3760 157.1 18.3  598  95
2026 08 17 04  20 35 27.294   +01 35 09.28  1.4103 2.3758 157.1 18.3  612  95
2026 08 17 05  20 35 23.278   +01 34 53.22  1.4103 2.3756 157.0 18.3  627  95
2026 08 17 06  20 35 19.264   +01 34 37.14  1.4102 2.3754 157.0 18.3  641  94
2026 08 17 07  20 35 15.251   +01 34 21.03  1.4102 2.3752 157.0 18.3  656  94
2026 08 17 08  20 35 11.239   +01 34 04.91  1.4101 2.3751 157.0 18.3  671  94
2026 08 17 09  20 35 07.227   +01 33 48.77  1.4101 2.3749 156.9 18.3  686  94